DB0TGO-13 Weather Reports


time (UTC)temp
F
wind
direction
speed
knots
gust
knots
rain 1hr
in
rain 24hr
in
rain mn
in
humidity
%
barometer
mb
20260504204502 62 30 4.3 0.0 0.00 0.00 0.00 66 1006.4
20260504203002 62 20 3.5 0.0 0.00 0.00 0.00 66 1006.4
20260504201502 62 360 3.5 0.0 0.00 0.00 0.00 68 1006.3
20260504200002 62 360 3.5 0.0 0.00 0.00 0.00 68 1006.3
20260504194502 63 360 3.5 0.0 0.00 0.00 0.00 66 1006.2
20260504193002 63 350 4.3 0.0 0.00 0.00 0.00 66 1006.2
20260504191502 64 350 4.3 0.0 0.00 0.00 0.00 65 1006.1
20260504190002 64 340 5.2 0.0 0.00 0.00 0.00 65 1006.1
20260504184502 66 340 5.2 0.0 0.00 0.00 0.00 62 1006.0
20260504183002 66 340 5.2 0.0 0.00 0.00 0.00 62 1006.0
20260504181503 68 340 5.2 0.0 0.00 0.00 0.00 58 1005.9
20260504180002 68 350 4.3 0.0 0.00 0.00 0.00 58 1005.9
20260504174502 69 350 4.3 0.0 0.00 0.00 0.00 55 1005.9
20260504173003 69 320 5.2 0.0 0.00 0.00 0.00 55 1005.9
20260504171502 69 320 5.2 0.0 0.00 0.00 0.00 54 1005.8
20260504081502 65 280 6.1 0.0 0.00 0.00 0.00 62 1007.0
20260504050002 61 230 3.5 0.0 0.00 0.00 0.00 63 1005.9
20260504044502 61 230 0.9 0.0 0.00 0.00 0.00 63 1005.5
20260504043003 61 230 0.9 0.0 0.00 0.00 0.00 63 1005.5
20260504041502 62 250 0.9 0.0 0.00 0.00 0.00 61 1005.8
20260504040002 62 250 0.9 0.0 0.00 0.00 0.00 61 1005.8
20260504034502 63 250 2.6 0.0 0.00 0.00 0.00 52 1006.0
20260504033002 63 250 2.6 0.0 0.00 0.00 0.00 52 1006.0
20260504031502 64 240 2.6 0.0 0.00 0.00 0.00 51 1006.1
20260504030003 64 240 2.6 0.0 0.00 0.00 0.00 51 1006.1